KUIPER-00120

基本信息
目录编号:
65762
目录名称:
KUIPER-00120
国际标识:
2025-217A
轨道中心:
EARTH
卫星名称:
KUIPER-00120
卫星全名:
KUIPER-00120
卫星状态:
在轨 (已飞行25 天)
发射日期:
2025-09-25 UTC
国别 :
美国 (US)
星等 :
--
轨道信息
数据来源 国际轨道数据
星历时间: 2025-10-20T14:00:04+0800
10小时前
查看轨道信息
半长轴: 6846.896km
偏心率: 0.0009472
轨道倾角: 51.864°
近地点辐角 198.010°
升交点赤经 323.326°
平近点角 115.774°
近地点: 462.275km
远地点: 475.247km
周期: 93.972分钟
每日圈数: 15.323651
详细信息
使用方式:
暂无
2D轨道图
3D轨道图
轨道高度分析图
轨道倾角分析图
轨道综合分析图
查看轨道综合分析图